When you browse on this site, cookies collect data to enhance your experience and personalize the content and advertising you see.
Visit our Privacy Policy to learn more. By continuing to use the site, you agree to this use of cookies and data.
  • In Czech Republic
  • List of Countries
  • For 7 days
  • Water Temperature
  • Satellite Maps
  • Weather Map
  • Weather Widgets
  • user-avatar
    Login

    Hourly Weather Midland

    Today, 17 February, Sunday

    Time Temperature Precipitation Wind Pressure Humidity
    00:00 -9°C° 0 mm 2 mps 747 mmHg 89%
    01:00 -10°C° 0 mm 2 mps 747 mmHg 90%
    02:00 -10°C° 0 mm 2 mps 747 mmHg 90%
    03:00 -10°C° 0 mm 2 mps 747 mmHg 90%
    04:00 -12°C° 0 mm 3 mps 746 mmHg 91%
    05:00 -12°C° 0 mm 3 mps 746 mmHg 91%
    06:00 -12°C° 0 mm 3 mps 746 mmHg 91%
    07:00 -10°C° 0 mm 3 mps 746 mmHg 90%
    08:00 -10°C° 0 mm 4 mps 746 mmHg 89%
    09:00 -9°C° 0 mm 4 mps 746 mmHg 87%
    10:00 -10°C° 0 mm 5 mps 746 mmHg 85%
    11:00 -10°C° 0 mm 5 mps 745 mmHg 83%
    12:00 -8°C° 0 mm 5 mps 745 mmHg 81%
    13:00 -8°C° 0 mm 5 mps 744 mmHg 80%
    14:00 -8°C° 0 mm 5 mps 744 mmHg 80%
    15:00 -9°C° 0 mm 6 mps 743 mmHg 79%
    16:00 -8°C° 0 mm 5 mps 743 mmHg 80%
    17:00 -10°C° 0 mm 5 mps 743 mmHg 82%
    18:00 -10°C° 0 mm 5 mps 743 mmHg 83%
    19:00 -10°C° 0 mm 5 mps 744 mmHg 84%
    20:00 -10°C° 0 mm 6 mps 744 mmHg 84%
    21:00 -10°C° 0 mm 6 mps 744 mmHg 85%
    22:00 -10°C° 0.1 mm 6 mps 744 mmHg 85%
    23:00 -11°C° 0.1 mm 5 mps 744 mmHg 86%

    Tomorrow, 18 February, Monday

    Time Temperature Precipitation Wind Pressure Humidity
    00:00 -11°C° 0.1 mm 5 mps 745 mmHg 86%
    01:00 -11°C° 0 mm 5 mps 745 mmHg 86%
    02:00 -11°C° 0 mm 5 mps 745 mmHg 86%
    03:00 -11°C° 0 mm 5 mps 745 mmHg 86%
    04:00 -11°C° 0 mm 5 mps 746 mmHg 86%
    05:00 -11°C° 0 mm 4 mps 747 mmHg 86%
    06:00 -11°C° 0 mm 4 mps 747 mmHg 86%
    07:00 -11°C° 0 mm 4 mps 748 mmHg 84%
    08:00 -11°C° 0 mm 5 mps 749 mmHg 83%
    09:00 -11°C° 0 mm 5 mps 750 mmHg 81%
    10:00 -10°C° 0 mm 4 mps 751 mmHg 78%
    11:00 -9°C° 0 mm 4 mps 751 mmHg 75%
    12:00 -8°C° 0 mm 3 mps 752 mmHg 73%
    13:00 -8°C° 0 mm 3 mps 752 mmHg 70%
    14:00 -6°C° 0 mm 2 mps 753 mmHg 68%
    15:00 -6°C° 0 mm 2 mps 753 mmHg 66%
    16:00 -6°C° 0 mm 2 mps 754 mmHg 70%
    17:00 -7°C° 0 mm 2 mps 755 mmHg 75%
    18:00 -7°C° 0 mm 2 mps 755 mmHg 79%
    19:00 -8°C° 0 mm 2 mps 756 mmHg 81%
    20:00 -9°C° 0 mm 2 mps 756 mmHg 82%
    21:00 -12°C° 0 mm 3 mps 757 mmHg 84%
    22:00 -12°C° 0 mm 2 mps 757 mmHg 84%
    23:00 -12°C° 0 mm 2 mps 757 mmHg 85%

    Day after tomorrow, 19 February, Tuesday

    Time Temperature Precipitation Wind Pressure Humidity
    00:00 -13°C° 0 mm 2 mps 758 mmHg 85%
    01:00 -11°C° 0 mm 1 mps 758 mmHg 85%
    02:00 -11°C° 0 mm 1 mps 758 mmHg 85%
    03:00 -12°C° 0 mm 1 mps 758 mmHg 85%
    04:00 -12°C° 0 mm 1 mps 759 mmHg 85%
    05:00 -12°C° 0 mm 0 mps 759 mmHg 86%
    06:00 -12°C° 0 mm 0 mps 759 mmHg 86%
    07:00 -11°C° 0 mm 0 mps 760 mmHg 82%
    08:00 -10°C° 0 mm 0 mps 760 mmHg 79%
    09:00 -9°C° 0 mm 1 mps 760 mmHg 75%
    10:00 -8°C° 0 mm 1 mps 760 mmHg 73%
    11:00 -7°C° 0 mm 1 mps 760 mmHg 71%
    12:00 -6°C° 0 mm 1 mps 760 mmHg 68%
    13:00 -6°C° 0 mm 1 mps 759 mmHg 68%
    14:00 -4°C° 0 mm 1 mps 758 mmHg 67%
    15:00 -5°C° 0 mm 0 mps 757 mmHg 67%
    16:00 -4°C° 0 mm 1 mps 757 mmHg 71%
    17:00 -6°C° 0 mm 1 mps 757 mmHg 75%
    18:00 -8°C° 0 mm 2 mps 758 mmHg 80%
    19:00 -7°C° 0 mm 1 mps 757 mmHg 80%
    20:00 -7°C° 0 mm 1 mps 757 mmHg 81%
    21:00 -7°C° 0 mm 1 mps 757 mmHg 81%
    22:00 -7°C° 0 mm 1 mps 757 mmHg 83%
    23:00 -8°C° 0 mm 2 mps 756 mmHg 84%

    20 February, Wednesday

    Time Temperature Precipitation Wind Pressure Humidity
    00:00 -8°C° 0 mm 2 mps 756 mmHg 85%
    01:00 -9°C° 0 mm 3 mps 755 mmHg 86%
    02:00 -9°C° 0 mm 3 mps 754 mmHg 87%
    03:00 -10°C° 0 mm 4 mps 753 mmHg 88%
    04:00 -10°C° 0 mm 4 mps 752 mmHg 87%
    05:00 -10°C° 0 mm 4 mps 752 mmHg 85%
    06:00 -11°C° 0 mm 5 mps 751 mmHg 84%
    07:00 -10°C° 0 mm 5 mps 750 mmHg 82%
    08:00 -10°C° 0 mm 5 mps 749 mmHg 80%
    09:00 -10°C° 0 mm 5 mps 748 mmHg 78%
    10:00 -9°C° 0.7 mm 6 mps 747 mmHg 82%
    11:00 -9°C° 0.7 mm 6 mps 746 mmHg 85%
    12:00 -9°C° 0.7 mm 6 mps 744 mmHg 89%
    13:00 -7°C° 0.7 mm 5 mps 743 mmHg 91%
    14:00 -7°C° 0.7 mm 4 mps 742 mmHg 92%
    15:00 -5°C° 0.7 mm 3 mps 741 mmHg 94%
    16:00 -5°C° 0.2 mm 3 mps 740 mmHg 95%
    17:00 -4°C° 0.2 mm 2 mps 740 mmHg 96%
    18:00 -2°C° 0.2 mm 1 mps 739 mmHg 97%
    19:00 -3°C° 0 mm 2 mps 739 mmHg 97%
    20:00 -3°C° 0 mm 2 mps 739 mmHg 96%
    21:00 -3°C° 0 mm 2 mps 739 mmHg 96%
    22:00 -2°C° 0 mm 3 mps 740 mmHg 95%
    23:00 -2°C° 0 mm 3 mps 740 mmHg 94%

    21 February, Thursday

    Time Temperature Precipitation Wind Pressure Humidity
    00:00 -1°C° 0 mm 3 mps 741 mmHg 94%
    01:00 -2°C° 0 mm 3 mps 742 mmHg 93%
    02:00 -2°C° 0 mm 3 mps 742 mmHg 93%
    03:00 -2°C° 0 mm 3 mps 743 mmHg 93%
    04:00 -4°C° 0 mm 3 mps 744 mmHg 92%
    05:00 -4°C° 0 mm 3 mps 745 mmHg 90%
    06:00 -4°C° 0 mm 3 mps 745 mmHg 89%
    07:00 -4°C° 0 mm 3 mps 746 mmHg 88%
    08:00 -4°C° 0 mm 3 mps 747 mmHg 87%
    09:00 -4°C° 0 mm 3 mps 748 mmHg 85%
    10:00 -4°C° 0 mm 3 mps 748 mmHg 86%
    11:00 -2°C° 0 mm 2 mps 749 mmHg 86%
    12:00 -2°C° 0 mm 2 mps 749 mmHg 86%
    13:00 -2°C° 0 mm 2 mps 749 mmHg 86%
    14:00 0°C° 0 mm 1 mps 749 mmHg 85%
    15:00 0°C° 0 mm 1 mps 749 mmHg 84%
    16:00 0°C° 0 mm 1 mps 749 mmHg 86%
    17:00 0°C° 0 mm 1 mps 750 mmHg 87%
    18:00 -2°C° 0 mm 0 mps 750 mmHg 88%
    19:00 -2°C° 0 mm 0 mps 750 mmHg 89%
    20:00 -2°C° 0 mm 0 mps 750 mmHg 90%
    21:00 -2°C° 0 mm 0 mps 751 mmHg 91%
    22:00 -2°C° 0 mm 0 mps 750 mmHg 91%
    23:00 -3°C° 0 mm 0 mps 750 mmHg 91%

    22 February, Friday

    Time Temperature Precipitation Wind Pressure Humidity
    00:00 -3°C° 0 mm 0 mps 750 mmHg 91%
    01:00 -3°C° 0 mm 0 mps 750 mmHg 92%
    02:00 -4°C° 0 mm 0 mps 750 mmHg 92%
    03:00 -4°C° 0 mm 0 mps 750 mmHg 92%
    04:00 -3°C° 0 mm 1 mps 750 mmHg 92%
    05:00 -3°C° 0 mm 1 mps 750 mmHg 92%
    06:00 -3°C° 0 mm 1 mps 751 mmHg 92%
    07:00 -2°C° 0 mm 1 mps 751 mmHg 90%
    08:00 -2°C° 0 mm 1 mps 751 mmHg 89%
    09:00 -1°C° 0 mm 1 mps 751 mmHg 87%
    10:00 -1°C° 0 mm 1 mps 751 mmHg 87%
    11:00 0°C° 0 mm 1 mps 751 mmHg 88%
    12:00 0°C° 0 mm 1 mps 751 mmHg 88%
    13:00 +1°C° 0 mm 1 mps 751 mmHg 87%
    14:00 +1°C° 0 mm 1 mps 750 mmHg 86%
    15:00 +1°C° 0 mm 1 mps 750 mmHg 84%
    16:00 +1°C° 0 mm 1 mps 750 mmHg 85%
    17:00 0°C° 0 mm 1 mps 751 mmHg 86%
    18:00 0°C° 0 mm 1 mps 751 mmHg 87%
    19:00 0°C° 0 mm 1 mps 751 mmHg 87%
    20:00 0°C° 0 mm 1 mps 751 mmHg 87%
    21:00 0°C° 0 mm 1 mps 751 mmHg 86%
    22:00 0°C° 0 mm 1 mps 750 mmHg 87%
    23:00 -1°C° 0 mm 1 mps 750 mmHg 88%
    Show more